Date String (YYYY-MM-DD hh:mm:ss) UTC,Instrument flags,Ambient pressure (hPa),Sample flow (lpm),Bypass flow (lpm),Sample temperature (°C),Ambient temperature (°C),ASC tube jacket temperature (°C),LED temperature (°C),Box temperature (°C),Sample RH (%),Span deviation,Mass concentration (μg/m³),Mass concentration (μg/m³),Mass concentration (μg/m³)
DateTimeUTC,F1_M11,P_M11,Q1_M11,Q2_M11,T1_M11,T2_M11,T3_M11,T4_M11,T5_M11,U1_M11,ZSPAN_M11,X0_M11,X2_M11,X1_M11
2023-05-22 08:00:00,,0832.1,5.00,0.00,29.4,27.6,00.0,37.8,31.0,17.9,0003.2,0023.22,0016.34,0015.58
2023-05-22 08:01:00,,0832.1,5.00,0.00,29.4,27.6,00.0,37.8,31.0,17.9,0003.2,0022.39,0016.35,0015.60
2023-05-22 08:02:00,,0832.1,4.99,0.00,29.4,27.6,00.0,37.8,31.0,18.0,0003.3,0021.75,0016.38,0015.62
2023-05-22 08:03:00,,0832.1,4.99,0.00,29.4,27.6,00.0,37.8,31.0,17.9,0003.3,0022.41,0016.37,0015.61
2023-05-22 08:04:00,,0832.2,5.01,0.00,29.4,27.6,00.0,37.8,31.0,17.9,0003.2,0022.82,0016.34,0015.59
2023-05-22 08:05:00,,0832.2,5.00,0.00,29.4,27.6,00.0,37.8,31.0,17.9,0003.3,0023.01,0016.36,0015.57
2023-05-22 08:06:00,,0832.2,5.01,0.00,29.4,27.6,00.0,37.8,30.9,17.9,0003.3,0023.40,0016.40,0015.58
2023-05-22 08:07:00,,0832.1,5.00,0.00,29.4,27.6,00.0,37.8,30.9,17.9,0003.1,0023.54,0016.41,0015.57
2023-05-22 08:08:00,,0832.1,5.00,0.00,29.4,27.6,00.0,37.8,30.9,17.9,0003.1,0023.61,0016.42,0015.58
2023-05-22 08:09:00,,0832.1,4.99,0.00,29.4,27.6,00.0,37.8,30.9,17.9,0003.0,0023.78,0016.50,0015.61
2023-05-22 08:10:00,,0832.1,5.00,0.00,29.4,27.6,00.0,37.8,30.9,17.9,0003.0,0023.88,0016.55,0015.62
2023-05-22 08:11:00,,0832.1,5.00,0.00,29.4,27.6,00.0,37.8,30.9,17.9,0003.1,0023.88,0016.55,0015.64
2023-05-22 08:12:00,,0832.1,5.00,0.00,29.4,27.5,00.0,37.8,30.9,17.9,0003.1,0024.12,0016.57,0015.64
2023-05-22 08:13:00,,0832.1,5.00,0.00,29.4,27.6,00.0,37.8,30.9,17.9,0003.1,0024.17,0016.58,0015.64
2023-05-22 08:14:00,,0832.1,4.99,0.00,29.4,27.5,00.0,37.8,30.9,18.0,0003.0,0023.62,0016.65,0015.67
2023-05-22 08:15:00,,0832.1,4.99,0.00,29.4,27.5,00.0,37.8,30.9,18.0,0003.1,0023.16,0016.68,0015.71
2023-05-22 08:16:00,,0832.1,5.00,0.00,29.3,27.5,00.0,37.8,30.9,17.9,0003.1,0022.97,0016.68,0015.74
2023-05-22 08:17:00,,0832.1,5.00,0.00,29.3,27.5,00.0,37.8,30.9,17.9,0003.1,0023.20,0016.67,0015.74
2023-05-22 08:18:00,,0832.1,5.00,0.00,29.3,27.5,00.0,37.7,30.9,17.9,0003.0,0022.70,0016.61,0015.72
2023-05-22 08:19:00,,0832.1,5.00,0.00,29.3,27.5,00.0,37.7,30.9,17.9,0003.0,0022.54,0016.63,0015.72
2023-05-22 08:20:00,,0832.1,5.00,0.00,29.3,27.5,00.0,37.7,30.9,17.9,0003.1,0022.14,0016.59,0015.70
2023-05-22 08:21:00,,0832.1,5.00,0.00,29.3,27.5,00.0,37.7,30.9,17.9,0003.0,0022.10,0016.54,0015.70
2023-05-22 08:22:00,,0832.0,5.00,0.00,29.3,27.5,00.0,37.7,30.8,17.9,0003.1,0022.17,0016.56,0015.70
2023-05-22 08:23:00,,0832.1,5.01,0.00,29.3,27.5,00.0,37.7,30.9,17.9,0003.2,0021.96,0016.53,0015.69
2023-05-22 08:24:00,,0832.0,5.00,0.00,29.3,27.5,00.0,37.7,30.9,17.9,0003.3,0021.91,0016.52,0015.68
2023-05-22 08:25:00,,0832.1,5.00,0.00,29.3,27.5,00.0,37.7,30.8,17.9,0003.5,0021.88,0016.51,0015.68
2023-05-22 08:26:00,,0832.0,5.00,0.00,29.3,27.4,00.0,37.7,30.8,17.9,0003.4,0021.98,0016.48,0015.66
2023-05-22 08:27:00,,0832.0,5.00,0.00,29.3,27.4,00.0,37.7,30.8,17.9,0003.2,0022.14,0016.50,0015.63
2023-05-22 08:28:00,,0832.0,5.00,0.00,29.3,27.4,00.0,37.7,30.8,17.9,0003.3,0021.85,0016.51,0015.61
2023-05-22 08:29:00,,0832.1,5.00,0.00,29.3,27.4,00.0,37.7,30.8,17.9,0003.5,0021.65,0016.52,0015.62
2023-05-22 08:30:00,,0832.0,5.01,0.00,29.3,27.4,00.0,37.7,30.8,17.9,0003.6,0021.60,0016.50,0015.61
2023-05-22 08:31:00,,0832.0,5.00,0.00,29.3,27.4,00.0,37.7,30.8,17.9,0003.6,0022.00,0016.45,0015.60
2023-05-22 08:32:00,,0832.0,5.00,0.00,29.3,27.4,00.0,37.7,30.8,17.9,0003.6,0022.10,0016.42,0015.60
2023-05-22 08:33:00,,0832.0,5.00,0.00,29.3,27.4,00.0,37.7,30.8,18.0,0003.5,0022.06,0016.39,0015.59
2023-05-22 08:34:00,,0832.0,5.00,0.00,29.3,27.4,00.0,37.7,30.8,18.0,0003.5,0022.25,0016.40,0015.59
2023-05-22 08:35:00,,0832.1,5.00,0.00,29.3,27.4,00.0,37.7,30.8,17.9,0003.4,0022.35,0016.45,0015.61
2023-05-22 08:36:00,,0832.0,5.01,0.00,29.2,27.3,00.0,37.6,30.8,17.9,0003.3,0022.77,0016.46,0015.63
2023-05-22 08:37:00,,0832.0,5.01,0.00,29.2,27.3,00.0,37.6,30.8,18.0,0003.2,0022.86,0016.49,0015.64
2023-05-22 08:38:00,,0832.1,4.98,0.00,29.2,27.3,00.0,37.6,30.8,18.0,0003.3,0022.72,0016.48,0015.67
2023-05-22 08:39:00,,0832.0,5.01,0.00,29.2,27.4,00.0,37.6,30.8,18.1,0003.3,0022.89,0016.49,0015.72
2023-05-22 08:40:00,,0832.0,5.01,0.00,29.2,27.4,00.0,37.6,30.8,18.0,0003.4,0022.95,0016.54,0015.76
2023-05-22 08:41:00,,0832.0,5.00,0.00,29.2,27.4,00.0,37.6,30.8,18.0,0003.4,0023.13,0016.62,0015.80
2023-05-22 08:42:00,,0832.0,5.00,0.00,29.2,27.3,00.0,37.6,30.7,18.0,0003.4,0022.86,0016.71,0015.87
2023-05-22 08:43:00,,0832.0,4.99,0.00,29.2,27.3,00.0,37.6,30.7,18.1,0003.4,0022.77,0016.81,0015.94
2023-05-22 08:44:00,,0832.0,4.99,0.00,29.2,27.3,00.0,37.6,30.7,18.0,0003.4,0022.74,0016.85,0015.96
2023-05-22 08:45:00,,0832.0,5.00,0.00,29.2,27.3,00.0,37.6,30.7,18.1,0003.2,0022.58,0016.89,0016.00
2023-05-22 08:46:00,,0832.0,4.99,0.00,29.2,27.3,00.0,37.6,30.7,18.1,0003.3,0022.69,0016.84,0015.98
2023-05-22 08:47:00,,0831.9,5.00,0.00,29.2,27.3,00.0,37.6,30.7,18.1,0003.3,0022.44,0016.85,0015.98
2023-05-22 08:48:00,,0831.9,5.01,0.00,29.2,27.3,00.0,37.6,30.7,18.1,0003.3,0022.78,0016.87,0016.01
2023-05-22 08:49:00,,0831.9,5.00,0.00,29.2,27.3,00.0,37.6,30.7,18.1,0003.3,0022.99,0016.89,0016.01
2023-05-22 08:50:00,,0831.9,5.00,0.00,29.1,27.3,00.0,37.6,30.7,18.1,0003.3,0022.78,0016.88,0016.00
2023-05-22 08:51:00,,0831.9,4.99,0.00,29.1,27.3,00.0,37.5,30.7,18.0,0003.1,0022.76,0016.84,0015.97
2023-05-22 08:52:00,,0831.9,5.00,0.00,29.1,27.3,00.0,37.5,30.7,18.1,0003.1,0022.80,0016.79,0015.95
2023-05-22 08:53:00,,0831.9,5.02,0.00,29.1,27.3,00.0,37.5,30.7,18.1,0003.1,0022.85,0016.79,0015.93
2023-05-22 08:54:00,,0831.9,4.99,0.00,29.1,27.2,00.0,37.5,30.7,18.1,0003.1,0022.93,0016.79,0015.88
2023-05-22 08:55:00,,0831.8,4.99,0.00,29.1,27.2,00.0,37.5,30.7,18.0,0003.1,0023.10,0016.84,0015.87
2023-05-22 08:56:00,,0831.8,5.00,0.00,29.1,27.2,00.0,37.5,30.6,18.1,0003.2,0023.17,0016.86,0015.88
2023-05-22 08:57:00,,0831.8,5.01,0.00,29.1,27.2,00.0,37.5,30.6,18.1,0003.0,0023.12,0016.90,0015.89
2023-05-22 08:58:00,,0831.8,5.00,0.00,29.1,27.2,00.0,37.5,30.7,18.1,0003.2,0022.94,0016.91,0015.90
2023-05-22 08:59:00,,0831.8,5.00,0.00,29.1,27.2,00.0,37.5,30.6,18.2,0003.2,0022.67,0016.90,0015.91
